Погода в Чеберчине

Россия / Республика Мордовия     54°22′00″N   46°28′05″E
темп.,
°C
ветер,
м/с
пор.,
м/с
влажн.,
%
обл.,
%
осадки,
мм/ч
давл.,
гПа
погр.,
м
12 мая, ср
ср1200:00+12с249398 0.3 102799
03:00+11св229447 0.3 102621
06:00+14в1287100 0.0 102699
09:00+19вюв6106133 0.0 1025974
12:00+20вюв61155100 0.0 10251385
15:00+16юв51271100 0.1 1025531
18:00+14в3984100 1.1 1024250
21:00+14в2682100 1.1 1024111
13 мая, чт
чт1300:00+13вюв248543 0.0 102476
03:00+12вюв238740 0.0 102440
06:00+13вюв31281100 0.0 1024296
09:00+16вюв51268100 0.0 1022480
12:00+19вюв61265100 0.1 1022770
15:00+21юв71364100 0.4 10201356
18:00+19юв51163100 0.0 1019540
21:00+16юв4116858 0.0 1020251
14 мая, пт
пт1400:00+16юв3868100 0.0 1020197
03:00+14юв22735 0.0 102012
06:00+16юв2376100 0.0 102195
09:00+21ююв356298 0.0 1021551
12:00+25ю4652100 0.0 10201401
15:00+25ююв5849100 0.0 1020858
18:00+22ююв37603 0.0 1019182
21:00+17юв36785 0.0 101992
15 мая, сб
сб1500:00+17ююв3962100 0.0 1019197
03:00+16ююв376094 0.0 1019138
06:00+17ю312615 0.0 1019303
09:00+24ю5114376 0.0 1018650
12:00+27ю69346 0.0 10181379
15:00+27ю510345 0.0 10181234
18:00+23ю5114710 0.0 1017400
21:00+18ююв4115997 0.0 1016208
16 мая, вс
вс1600:00+17ююв410575 0.0 1016192
03:00+17ююв4105345 0.0 1016204
06:00+18ю4145738 0.0 1016368
09:00+23ююз51248100 0.0 1016660
12:00+26ююз6942100 0.0 10161224
15:00+27ююз584020 0.0 10151532
18:00+23юз36607 0.0 1016192
21:00+18ююз22745 0.0 101729